[[{"header":{"parameterUnit":"m.s-1","parameterCategory":1,"la1":30.2991,"la2":30.254,"lo1":-89.0895,"lo2":-89.0444,"dy":0.0017,"dx":0.0017,"nx":28,"ny":28,"refTime":"2025-06-16T03:00:00:Z","depth":0,"parameterNumber":2,"parameterNumberName":"U-component_of_WINDS"},"data":[0,0,0,0,0,0,0,0,0,0,0,0,0,0,0,0,0,0,0,0,0,0,0,0,0,0,0,0,0,0,0,0,0,0,0,0,0,0,0,0,0,0,0,0,0,0,0,0,0,0,0,0,0,0,0,0,0,0,-0.0281,-0.0279,0,-0.0131,-0.0129,-0.0127,-0.009,-0.0091,-0.0092,-0.0093,0.0064,0.0069,0.0074,0,0,0,0,0,0,0,0,0,0,0,0,0,-0.0531,-0.0526,-0.0281,-0.0279,-0.0277,-0.0131,-0.0129,-0.0127,-0.009,-0.0091,-0.0092,-0.0093,0.0063,0.0069,0.0075,0,0,0,0,0,0,0,0,0,0,0,0,0,-0.0406,-0.0525,-0.0281,-0.0241,-0.0236,-0.0132,-0.0129,-0.0126,-0.009,-0.0091,-0.0093,-0.0094,0.0061,0.0068,0.0076,0.0152,0,0,0.0099,0.0102,0,0,0,0,0,0,0,0,-0.0413,-0.0396,-0.0249,-0.0244,-0.0238,-0.0131,-0.0159,-0.0033,-0.0089,-0.0145,-0.0093,-0.0095,0.0001,0.0013,0.0045,0.0159,0.0166,0.01,0.0104,0.0107,0.011,0,0,0,0,0,0,0,-0.0421,-0.0403,-0.0221,-0.0247,-0.024,-0.0229,-0.0213,-0.0135,-0.0066,-0.014,-0.0137,-0.012,0.0004,0.0037,0.0049,0.0168,0.0099,0.0106,0.0111,0.0114,0.0356,0.0357,0,0,0,0,0,0,-0.0438,-0.041,-0.0226,-0.0217,-0.0331,-0.0224,-0.0205,-0.0164,-0.0066,-0.0053,-0.0119,-0.0119,0.0025,0.004,0.0054,0.0152,0.0107,0.0115,0.0119,0.0354,0.0356,0.0358,0,0,0,0,0,0,-0.0443,-0.0422,-0.0232,-0.0313,-0.0288,-0.0218,-0.0171,-0.016,-0.0126,-0.005,-0.0037,-0.0098,0.0024,0.0044,0.0128,0.0158,0.0118,0.0125,0.0352,0.0355,0.0357,0.0347,0,0,0,0,0,0,-0.0451,-0.0424,-0.0395,-0.0312,-0.0284,-0.0163,-0.0169,-0.0156,-0.0113,-0.0112,-0.0027,-0.0014,0.0025,0.0116,0.0135,0.0168,0.0131,0.0349,0.0353,0.0356,0.0345,0.0349,0.0352,0,0,0,0,0,-0.046,-0.0404,-0.0394,-0.0372,-0.0247,-0.0161,-0.0144,-0.0102,-0.0111,-0.0081,-0.0032,-0.0017,0.0151,0.0124,0.0146,0.0181,0.0348,0.0352,0.0356,0.0343,0.0348,0.0352,0,0,0,0,0,0,-0.0484,-0.0392,-0.038,-0.0296,-0.0237,-0.0155,-0.0116,-0.0098,-0.0034,-0.0035,0.0016,0.0035,0.0116,0.0157,0.0126,0.0262,0.025,0.0258,0.0232,0.0238,0.0241,0.023,0.0137,0,0,0,0,0,-0.048,-0.0419,-0.0342,-0.0275,-0.0246,-0.0186,-0.0147,-0.012,-0.0056,-0.003,0.0025,0.0088,0.0155,0.0198,0.0264,0.035,0.0371,0.0385,0.0389,0.0392,0.0399,0.045,0.0458,0.0372,0.0372,0.0372,0,0,-0.047,-0.0412,-0.0377,-0.0279,-0.0229,-0.0166,-0.0165,-0.0099,-0.0051,-0.0019,0.0064,0.0106,0.018,0.0265,0.0306,0.0302,0.0428,0.0397,0.0399,0.0405,0.0455,0.0464,0.0471,0.0375,0.0374,0.0374,0,0,-0.042,-0.0371,-0.0309,-0.026,-0.0185,-0.0146,-0.0131,-0.0051,-0.0022,0.0062,0.0087,0.0145,0.0259,0.0311,0.0353,0.0424,0.0441,0.0444,0.0464,0.0513,0.052,0.0526,0.0554,0.0563,0.0451,0.0451,0.0451,0,-0.0416,-0.0322,-0.0279,-0.0214,-0.017,-0.014,-0.0075,-0.0029,0.0063,0.0093,0.0087,0.0232,0.0283,0.0383,0.04,0.0432,0.0452,0.0435,0.0515,0.0522,0.0529,0.0555,0.0565,0.0451,0.0451,0.0451,0.0451,0,-0.032,-0.0255,-0.0214,-0.0126,-0.0078,-0.0013,0.004,0.0084,0.0108,0.0149,0.0235,0.0297,0.0377,0.0403,0.0427,0.0506,0.0502,0.0505,0.0494,0.0536,0.0562,0.0573,0.0451,0.0451,0.0451,0.0451,0,0,-0.0281,-0.017,-0.0155,-0.0114,-0.003,0.0023,0.0089,0.0166,0.0204,0.0267,0.0325,0.0421,0.0425,0.0472,0.0502,0.0544,0.0599,0.0543,0.0545,0.0553,0.0694,0.0692,0.0703,0.061,0.0612,0.0614,0.0688,0,-0.0218,-0.0099,-0.0059,0.0041,0.0103,0.0133,0.0191,0.025,0.029,0.035,0.0395,0.0463,0.0461,0.049,0.0533,0.0583,0.0629,0.0578,0.0668,0.067,0.065,0.0717,0.0716,0.0782,0.0698,0.07,0.0701,0,-0.0129,-0.0066,0.0039,0.0118,0.0145,0.0197,0.0272,0.0328,0.0396,0.0422,0.0475,0.0502,0.0575,0.0558,0.066,0.0625,0.0664,0.0694,0.0698,0.0709,0.069,0.0732,0.0805,0.0815,0.0718,0.0716,0.0715,0,-0.0108,0.0004,0.0082,0.0116,0.0208,0.0244,0.0284,0.0351,0.0395,0.0461,0.0491,0.0564,0.0605,0.0662,0.0709,0.0692,0.0808,0.0795,0.0834,0.0833,0.0859,0.0857,0.094,0.088,0.088,0.0879,0.0879,0,-0.0041,0.0022,0.0093,0.0141,0.0214,0.026,0.0332,0.0374,0.0433,0.0492,0.0522,0.0576,0.0634,0.0696,0.0733,0.0813,0.0831,0.0856,0.0865,0.0855,0.0852,0.0882,0.088,0.0882,0.0882,0.0881,0.0881,0,-0.0005,0.0045,0.0132,0.0212,0.0234,0.0284,0.0354,0.0403,0.0444,0.0517,0.0537,0.0603,0.0678,0.0729,0.0826,0.0851,0.0939,0.0946,0.0915,0.092,0.0957,0.0954,0.1065,0.1083,0.1008,0.1009,0.101,0,0.0036,0.0085,0.0171,0.0212,0.0252,0.0317,0.0362,0.041,0.0457,0.0539,0.0578,0.0655,0.0719,0.0838,0.0895,0.0969,0.0981,0.1015,0.0992,0.098,0.0984,0.0982,0.0988,0.1019,0.1019,0.102,0.102,0,0.0103,0.0125,0.0188,0.0261,0.0314,0.0374,0.0434,0.0466,0.0525,0.0576,0.0652,0.0702,0.08,0.0877,0.0957,0.1001,0.1021,0.1026,0.104,0.103,0.1011,0.1024,0.0927,0.1024,0.1024,0.1023,0.1023,0.1023,0.0145,0.0191,0.0259,0.0329,0.0379,0.0435,0.0485,0.0532,0.0596,0.068,0.0704,0.0785,0.0853,0.0963,0.1007,0.1072,0.107,0.1088,0.1094,0.1098,0.1099,0.0999,0.1086,0.1086,0.1086,0.1086,0.1086,0,0.0215,0.026,0.0324,0.0407,0.0463,0.0476,0.0543,0.059,0.0659,0.0721,0.0783,0.0873,0.0947,0.101,0.1088,0.1128,0.1139,0.1147,0.1146,0.1156,0.1096,0.1077,0.1136,0.1136,0.1136,0.1136,0.1136,0.1136,0.0259,0.0338,0.0369,0.0474,0.0519,0.0597,0.0635,0.0687,0.0737,0.0835,0.0897,0.0936,0.0999,0.1082,0.1152,0.1169,0.1197,0.1203,0.1222,0.1165,0.116,0.1154,0.1137,0.1208,0.1208,0.1277,0.1277,0.1278]},{"header":{"parameterUnit":"m.s-1","parameterCategory":1,"la1":30.2991,"la2":30.254,"lo1":-89.0895,"lo2":-89.0444,"dy":0.0017,"dx":0.0017,"nx":28,"ny":28,"refTime":"2025-06-16T03:00:00:Z","depth":0,"parameterNumber":3,"parameterNumberName":"V-component_of_WINDS"},"data":[0,0,0,0,0,0,0,0,0,0,0,0,0,0,0,0,0,0,0,0,0,0,0,0,0,0,0,0,0,0,0,0,0,0,0,0,0,0,0,0,0,0,0,0,0,0,0,0,0,0,0,0,0,0,0,0,0,0,2.2281,2.2284,0,2.2553,2.2556,2.2559,2.2587,2.2584,2.2581,2.2578,2.2854,2.2863,2.2873,0,0,0,0,0,0,0,0,0,0,0,0,0,2.1778,2.1787,2.228,2.2284,2.2287,2.2552,2.2556,2.256,2.2587,2.2584,2.258,2.2577,2.285,2.2862,2.2874,0,0,0,0,0,0,0,0,0,0,0,0,0,2.2018,2.179,2.228,2.2333,2.234,2.2552,2.2556,2.2561,2.2588,2.2584,2.258,2.2576,2.2846,2.2861,2.2876,2.3051,0,0,2.2921,2.2927,0,0,0,0,0,0,0,0,2.2004,2.2036,2.2322,2.233,2.2338,2.2532,2.248,2.2725,2.2589,2.2494,2.2578,2.2574,2.275,2.2772,2.2832,2.3064,2.3076,2.2922,2.2931,2.2938,2.2942,0,0,0,0,0,0,0,2.1988,2.2025,2.2388,2.2326,2.2336,2.2341,2.2371,2.2527,2.2642,2.2502,2.2504,2.2537,2.2753,2.2818,2.2839,2.308,2.2922,2.2935,2.2944,2.295,2.3468,2.3472,0,0,0,0,0,0,2.1962,2.2011,2.2379,2.2396,2.2158,2.2354,2.2387,2.2474,2.264,2.2662,2.254,2.2537,2.2795,2.2822,2.2849,2.3065,2.2938,2.2952,2.296,2.3463,2.3469,2.3474,0,0,0,0,0,0,2.1951,2.1994,2.2368,2.2204,2.2252,2.2367,2.2464,2.2481,2.2546,2.2669,2.2689,2.2585,2.2792,2.2828,2.3001,2.3075,2.2958,2.2972,2.3457,2.3465,2.3472,2.3499,0,0,0,0,0,0,2.1936,2.199,2.206,2.2206,2.2261,2.2518,2.2469,2.249,2.2572,2.2571,2.2717,2.2737,2.2792,2.2978,2.3015,2.3093,2.2984,2.3451,2.3461,2.3469,2.3492,2.3507,2.3519,0,0,0,0,0,2.1918,2.2056,2.2063,2.2108,2.2351,2.2522,2.2553,2.2615,2.2578,2.2648,2.2726,2.2732,2.306,2.2996,2.3038,2.3121,2.3447,2.3458,2.3469,2.3486,2.3504,2.3518,0,0,0,0,0,0,2.1915,2.2077,2.2086,2.2276,2.2385,2.2526,2.2617,2.2632,2.2753,2.2746,2.2816,2.2848,2.3018,2.3087,2.3012,2.3299,2.325,2.3269,2.3249,2.3266,2.3279,2.326,2.2996,0,0,0,0,0,2.1937,2.2064,2.2197,2.2352,2.2406,2.2502,2.2579,2.2616,2.2732,2.2778,2.2869,2.298,2.3108,2.319,2.3315,2.3501,2.3533,2.3579,2.3592,2.3603,2.3619,2.3721,2.3743,2.351,2.351,2.3509,0,0,2.1983,2.2086,2.2162,2.2354,2.2443,2.2571,2.2541,2.2678,2.2774,2.2798,2.2968,2.3038,2.3166,2.3346,2.343,2.3408,2.369,2.3617,2.3624,2.3635,2.3735,2.3757,2.3776,2.3517,2.3516,2.3515,0,0,2.2132,2.2223,2.2362,2.2452,2.2587,2.2649,2.2682,2.2822,2.287,2.3041,2.3061,2.3174,2.3394,2.3484,2.3558,2.3738,2.3748,2.3776,2.3846,2.3945,2.3963,2.398,2.4044,2.4066,2.3792,2.3792,2.3792,0,2.2171,2.2368,2.243,2.2568,2.2651,2.2679,2.2819,2.2902,2.3071,2.3126,2.31,2.3374,2.3462,2.3663,2.3707,2.3766,2.3805,2.3761,2.3956,2.3973,2.399,2.4051,2.4075,2.3795,2.3795,2.3794,2.3794,0,2.2409,2.2544,2.2639,2.2803,2.2896,2.3033,2.3115,2.3202,2.323,2.3294,2.3467,2.3573,2.3719,2.3769,2.3798,2.3974,2.3956,2.3942,2.3894,2.4013,2.4072,2.4097,2.3799,2.3798,2.3797,2.3796,0,0,2.2566,2.2761,2.2795,2.2869,2.3019,2.3125,2.3262,2.3406,2.3478,2.3592,2.3708,2.3892,2.3879,2.3963,2.4002,2.4089,2.4224,2.4064,2.4068,2.409,2.4422,2.4432,2.4459,2.423,2.4235,2.4238,2.4411,0,2.2733,2.2981,2.304,2.3252,2.3377,2.3404,2.3523,2.3627,2.369,2.3804,2.3872,2.4001,2.3975,2.4026,2.4113,2.4189,2.4291,2.4177,2.4337,2.4342,2.4306,2.449,2.4502,2.466,2.4435,2.4439,2.4442,0,2.2961,2.3081,2.3306,2.3438,2.3493,2.36,2.3735,2.3844,2.3961,2.4,2.4093,2.4123,2.4265,2.4208,2.4403,2.4324,2.4392,2.4439,2.4447,2.4465,2.44,2.4513,2.4712,2.4736,2.4479,2.4476,2.4473,0,2.3053,2.3271,2.3433,2.3495,2.3654,2.3728,2.3797,2.3911,2.3993,2.411,2.4163,2.4295,2.4367,2.4467,2.4531,2.4484,2.472,2.4669,2.4756,2.4755,2.4806,2.4802,2.5019,2.4849,2.4848,2.4848,2.4847,0,2.3234,2.337,2.3477,2.3577,2.3729,2.3794,2.3942,2.4012,2.4112,2.4224,2.4254,2.4358,2.4435,2.4549,2.4599,2.4753,2.4785,2.4819,2.4831,2.4818,2.4813,2.4864,2.4855,2.4854,2.4853,2.4852,2.4851,0,2.3363,2.3441,2.3619,2.3755,2.3791,2.3898,2.4013,2.4109,2.4171,2.4313,2.435,2.4447,2.4583,2.4656,2.4825,2.4859,2.503,2.5036,2.4992,2.4997,2.5079,2.5071,2.5338,2.5376,2.5179,2.5181,2.5182,0,2.3474,2.358,2.3726,2.3804,2.3875,2.4,2.4084,2.4151,2.4236,2.4376,2.4455,2.4593,2.4707,2.4921,2.5006,2.5135,2.5144,2.5229,2.5164,2.5146,2.5146,2.5139,2.5149,2.5241,2.5242,2.5244,2.5245,0,2.3662,2.3695,2.3815,2.3949,2.4048,2.4156,2.4263,2.4324,2.4408,2.4502,2.4642,2.473,2.4903,2.5038,2.5174,2.5242,2.5258,2.5264,2.5291,2.5279,2.5249,2.5266,2.5023,2.5259,2.5257,2.5256,2.5255,2.5255,2.3787,2.3881,2.3999,2.4131,2.4218,2.4317,2.4414,2.4489,2.4607,2.4754,2.4785,2.4932,2.5044,2.5227,2.53,2.5414,2.5397,2.5436,2.5446,2.5455,2.5458,2.523,2.5439,2.5438,2.5438,2.5438,2.5438,0,2.3976,2.4053,2.4174,2.4323,2.4426,2.4432,2.455,2.4635,2.4765,2.4869,2.498,2.5139,2.527,2.5364,2.5497,2.557,2.558,2.5603,2.5598,2.5614,2.5466,2.543,2.5592,2.5592,2.5592,2.5592,2.5592,2.5592,2.4087,2.4248,2.4293,2.4496,2.4571,2.4717,2.4783,2.4873,2.4956,2.5133,2.5242,2.5303,2.5403,2.5542,2.5662,2.5686,2.5733,2.5755,2.578,2.5641,2.5624,2.5609,2.5575,2.5765,2.5765,2.5918,2.5919,2.5921]}]]